This demonstration page uses our WeatherBlox Daily Observations layout. Learn more.

Left ArrowRight Arrow

41.12389, -100.76542

Hourly Observations for July 1, 2016

Temp ( °F °C ) Dew Point ( °F °C ) Humidity (%) Winds ( mph kmh ) Pressure ( in mb ) Visibility ( mi km ) Precip ( " mm )
12:53 am 00:53 Clear 62 16.7 59 15 90 90 ENE 5 7 30.11 1020 10 16 0.00 0.00
1:53 am 01:53 Clear 60 15.6 58 14.4 93 93 E 5 7 30.11 1020 10 16 0.00 0.00
2:53 am 02:53 Clear 60 15.6 57 13.9 90 90 ESE 5 7 30.10 1019 10 16 0.00 0.00
3:53 am 03:53 Clear 58 14.4 56 13.3 93 93 ESE 6 9 30.11 1020 10 16 0.00 0.00
4:53 am 04:53 Clear 58 14.4 56 13.3 93 93 Calm 30.11 1020 10 16 0.00 0.00
5:53 am 05:53 Partly Cloudy 59 15 57 13.9 93 93 E 5 7 30.12 1020 10 16 0.00 0.00
6:53 am 06:53 Mostly Cloudy 60 15.6 57 13.9 90 90 ESE 6 9 30.13 1020 10 16 0.00 0.00
7:53 am 07:53 Cloudy 61 16.1 57 13.9 87 87 SE 8 13 30.13 1020 10 16 0.00 0.00
8:53 am 08:53 Mostly Cloudy 63 17.2 58 14.4 84 84 ESE 12 19 30.13 1020 10 16 0.00 0.00
9:53 am 09:53 Cloudy 64 17.8 59 15 84 84 ESE 13 20 30.13 1020 10 16 0.00 0.00
10:53 am 10:53 Mostly Cloudy 68 20 60 15.6 76 76 E 13 20 30.11 1020 10 16 0.00 0.00
11:53 am 11:53 Mostly Cloudy 69 20.6 62 16.7 78 78 ESE 9 15 30.11 1020 10 16 0.00 0.00
12:53 pm 12:53 Mostly Cloudy with Light Rain 67 19.4 62 16.7 84 84 ESE 9 15 30.11 1020 10 16 0.00 0.03
1:26 pm 13:26 Cloudy with Heavy Rain 64 18 63 17 94 94 ESE 8 13 30.09 1019 2 3 0.00 0.00
1:36 pm 13:36 Cloudy with Rain 65 18.3 63 17.2 93 93 ESE 9 15 30.06 1018 3 4 0.10 2.54
1:53 pm 13:53 Cloudy with Light Rain 65 18.3 63 17.2 93 93 ESE 12 19 30.11 1020 3 5 0.16 4.06
2:22 pm 14:22 Cloudy with Light Rain 66 18.9 64 17.8 93 93 ESE 12 19 30.06 1018 3 5 0.05 1.27
2:48 pm 14:48 Cloudy with Light Rain 66 19 64 18 94 94 ESE 12 19 30.03 1017 4 6 0.00 0.00
2:53 pm 14:53 Cloudy with Light Rain 67 19.4 65 18.3 93 93 ESE 10 17 30.08 1019 5 8 0.06 1.52
3:23 pm 15:23 Cloudy with Light Rain 68 20 66 18.9 93 93 SE 10 17 30.03 1017 6 10 0.00 0.03
3:53 pm 15:53 Cloudy 67 19.4 61 16.1 81 81 SE 12 19 30.08 1019 10 16 0.00 0.03
4:53 pm 16:53 Cloudy 68 20 64 17.8 87 87 SSE 13 20 30.04 1017 10 16 0.00 0.00
5:53 pm 17:53 Cloudy with Light Rain 67 19.4 63 17.2 87 87 ESE 13 20 30.03 1017 10 16 0.00 0.03
6:53 pm 18:53 Cloudy 67 19.4 63 17.2 87 87 ESE 13 20 30.01 1016 10 16 0.00 0.03
7:53 pm 19:53 Cloudy with Light Rain 65 18.3 64 17.8 97 97 E 14 22 30.01 1016 3 5 0.02 0.51
8:53 pm 20:53 Cloudy 65 18.3 62 16.7 90 90 ESE 13 20 30.00 1016 10 16 0.02 0.51
9:53 pm 21:53 Cloudy 64 17.8 61 16.1 90 90 ESE 14 22 29.99 1016 10 16 0.00 0.00
10:53 pm 22:53 Cloudy 63 17.2 59 15 87 87 ESE 14 22 29.99 1016 10 16 0.00 0.03
11:53 pm 23:53 Cloudy 62 16.7 59 15 90 90 ESE 13 20 30.00 1016 10 16 0.00 0.00

Powered by AerisWeather